Regional Weather Roundup
Issued by NWS Charleston, SC

Current Version | Previous Version | Graphics & Text | Print | Product List | Glossary On
Versions: 1 2 3 4 5 6 7 8 9 10 11 12 13 14 15 16 17 18 19 20 21 22 23 24 25 26 27 28 29 30 31 32 33 34 35 36 37 38 39 40 41 42 43 44 45 46 47 48 49 50
000
ASUS42 KCHS 100227
RWRCHS

REGIONAL WEATHER ROUNDUP
NATIONAL WEATHER SERVICE CHARLESTON SC
900 PM EST FRI DEC 09 2016

NOTE: "FAIR" INDICATES FEW OR NO CLOUDS BELOW 12,000 FEET WITH NO
SIGNIFICANT WEATHER AND/OR OBSTRUCTIONS TO VISIBILITY.

NOT ALL STATIONS ARE QUALITY CONTROLLED. USE DATA WITH CAUTION...
ESPECIALLY DEWPOINT OBSERVATIONS.

SCZ027-030-031-034>040-042>050-100300-
...SOUTHEAST SOUTH CAROLINA...

CITY           SKY/WX    TMP DP  RH WIND       PRES   REMARKS
N CHARLESTON   CLEAR     38  25  59 NE5       30.47R WCI  34
WATERFRONT PRK   N/A     45  32  60 NE10      30.45R
MOUNT PLEASANT FAIR      37  28  70 CALM      30.47R
JOHNS ISLAND   FAIR      39  27  60 CALM      30.47R
PINOPOLIS        N/A     45  27  49 NE10      30.39R
MONCKS CORNER  FAIR      32  28  86 CALM      30.48R
SUMMERVILLE    FAIR      32  32 100 CALM      30.48S
BEAUFORT MCAS  CLEAR     39  28  64 N7        30.46R WCI  34
BEAUFORT ARPT  FAIR      41  30  65 N6        30.46R
HILTON HEAD IS CLEAR     43  25  49 N8        30.47R
WALTERBORO     CLEAR     32  32 100 CALM      30.48S
ALLENDALE      FAIR      34  30  86 CALM      30.46R

...SOUTHERN MIDLANDS AND PEE DEE...

CITY           SKY/WX    TMP DP  RH WIND       PRES   REMARKS
GEORGETOWN     NOT AVBL
KINGSTREE      FAIR      30  27  86 CALM      30.48R
ORANGEBURG     CLEAR     32  27  81 CALM      30.47R
BARNWELL       NOT AVBL
AIKEN          FAIR      30  25  80 CALM      30.48S
MANNING        FAIR      28  27  93 CALM      30.48R
COLUMBIA       CLEAR     31  25  78 S5        30.46R WCI  26
SUMTER         CLEAR     35  21  55 CALM      30.45R
FLORENCE       CLEAR     32  22  66 N3        30.47R
MYRTLE BEACH   NOT AVBL
N MYRTLE BEACH CLEAR     32  28  85 CALM      30.46R

$$

GAZ063-065-086>088-099>101-113>116-118-119-134>141-150-100300-
...SOUTHEAST GEORGIA...

CITY           SKY/WX    TMP DP  RH WIND       PRES   REMARKS
SAVANNAH ARPT  PTCLDY    39  29  67 CALM      30.47R
HUNTER AAF     CLEAR     37  29  74 N3        30.43R
FORT STEWART   CLEAR     35  28  78 CALM      30.43R
STATESBORO     CLEAR     32  32  99 CALM      30.46S
SYLVANIA       CLEAR    N/A N/A N/A CALM      30.47R
CLAXTON        FAIR      34  34 100 CALM      30.46S

...CSRA...CENTRAL AND FAR SOUTHEAST GEORGIA...

CITY           SKY/WX    TMP DP  RH WIND       PRES   REMARKS
THOMSON        CLEAR     31  29  92 CALM      30.49S
AUGUSTA-BUSH   CLEAR     30  25  81 CALM      30.45F
AUGUSTA-DANIEL CLEAR     41  16  36 NE5       30.45S
SWAINSBORO     FAIR      34  30  86 CALM      30.47R
VIDALIA        CLOUDY    37  30  75 CALM      30.46R
EASTMAN        FAIR      30  22  71 CALM      30.48S
HAZLEHURST     FAIR      40  27  58 N6        30.44S WCI  36
ALMA           CLEAR     41  23  48 N5        30.44R
WAYCROSS       CLEAR     37  34  89 CALM      30.44R
JESUP          FAIR      43  30  61 NE6       30.44S
BAXLEY         FAIR      36  34  93 CALM      30.44S
BRUNSWICK      CLEAR     41  32  70 N3        30.45S
SAINT SIMONS   CLEAR     43  31  62 N7        30.43S

$$

SCZ027-028-034-036>038-045-046-048>050-GAZ119-141-100300-
...LAKE AND SUPPLEMENTAL COASTAL OBSERVATIONS...

STATION/POSITION TIME  TEMP    WIND        PRES    WAVE   SWELL
                       AIR SEA DIR/SP/G            HT/PER HT/PER/DIR
                 (UTC) (F)     (DEG/KT/KT) (MB)    (FT/S) (FT/S/D)
WINYAH BAY       0130   35     330/  3     1031.0S
LAKE MURRAY      0130   38      CALM  /  2 1030.8R
ACE BASIN NERRS  0145   38        CALM     1031.0S
FORT PULASKI     0200   45 60   10/  8/ 10 1031.2
SAPELO ISLAND    0145   42      20/  5     1031.0R

$$

ANZ835-935-AMZ111-154-330-350-352-354-370-450-454-472-100300-
...C-MAN AND BUOY OBSERVATIONS...

STATION/POSITION TIME  TEMP    WIND        PRES    WAVE   SWELL
                       AIR SEA DIR/SP/G            HT/PER HT/PER/DIR
                 (UTC) (F)     (DEG/KT/KT) (MB)    (FT/S) (FT/S/D)
BUOY 41004       0150   50 71   10/ 14/ 19 1029.8R   4/ 6   2/ 60/ 9
BUOY 41008       0050   52 62   10/ 14/ 17 1029.6    3/ 6   2/ 80/ 7
FOLLY BEACH CMAN 0200   44      10/ 14/ 16 1031.6R
CAPERS NEARSHORE 0108   46 60   10/ 14/ 19 1030.6R
FRIPP NEARSHORE  0208   48 60   30/ 14/ 17 1031.1R


STATION/POSITION TIME  TEMP    WIND        PRES    WAVE   SWELL
                       AIR SEA DIR/SP/G            HT/PER HT/PER/DIR
                 (UTC) (F)     (DEG/KT/KT) (MB)    (FT/S) (FT/S/D)
5E ST. MARYS GA  0200      64                N/A     3/ 7
FRYING PAN BUOY  0150   46 72  360/ 14/ 21 1030.5R   3/ 4   2/ 90/ 8
BUOY 41025       0150   43 76  350/ 17/ 23 1029.6R   5/10   3/ 80/10
CAPE LOOKOUT NC  0200   39     340/ 12/ 14 1030.2R
BUOY 41002       0150   58 73  360/ 16/ 21 1026.3R   6/ 8   3/ 10/ 8
BUOY 41010       NOT AVBL
ST AUGUSTINE FL  0200   54 64   10/ 21/ 22 1029.7R


$$



USA.gov is the U.S. government's official web portal to all federal, state and local government web resources and services.